Bridgeport, WV

10:45 AM EST on February 24, 2017 (GMT -0500)
Benedum

Weather History for KCKB - July, 2013

Change the Weather History Date:

Tuesday, July 2, 2013

  Actual Average Record
Temperature  
Mean Temperature 75 °F -  
Max Temperature 84 °F 83 °F 99 °F (1931)
Min Temperature 68 °F 60 °F 47 °F (1937)
Cooling Degree Days 10    
Growing Degree Days 25 (Base 50)    
Moisture  
Dew Point 66 °F    
Average Humidity 78    
Maximum Humidity 94    
Minimum Humidity 53    
Precipitation  
Precipitation 0.20 in - - ()
Sea Level Pressure  
Sea Level Pressure 30.00 in    
Wind  
Wind Speed 4 mph (SW)    
Max Wind Speed 10 mph    
Max Gust Speed -    
Visibility 9 miles    
Events Rain    
Averages and records for this station are not official NWS values.
T = Trace of Precipitation, MM = Missing Value Source: NWS Daily Summary

Daily Weather History Graph

Daily Weather History Graph

Search for Another Location

Airport or City:

Trip Planner

Search our weather history database for the weather conditions in past years. The results will help you decide how hot, cold, wet, or windy it might be!

Date:

Astronomy

Jul. 02, 2013 Rise Set
Actual Time 5:58 AM EDT 8:51 PM EDT
Civil Twilight 5:26 AM EDT 9:23 PM EDT
Nautical Twilight 4:45 AM EDT 10:03 PM EDT
Astronomical Twilight 3:59 AM EDT 10:50 PM EDT
Moon 1:59 AM EDT (7/2) 4:04 PM EDT (7/2)
Length of Visible Light 15h 56m
Length of Day
14h 52m
Waning Crescent, 26% of the Moon is Illuminated
Jul 2
Waning Crescent
Jul 8
New
Jul 15
First Quarter
Jul 22
Full
Jul 29
Last Quarter

Hourly Weather History & Observations

Time (EDT) Temp. Heat Index Dew Point Humidity Pressure Visibility Wind Dir Wind Speed Gust Speed Precip Events Conditions
12:19 AM 69.8 °F - 66.2 °F 88% 29.98 in 7.0 mi NW 4.6 mph - N/A   Overcast
12:53 AM 70.0 °F - 66.9 °F 90% 29.94 in 10.0 mi NW 3.5 mph - N/A   Overcast
1:31 AM 69.8 °F - 66.2 °F 88% 29.99 in 5.0 mi WSW 5.8 mph - 0.02 in Rain Light Rain
1:35 AM 69.8 °F - 66.2 °F 88% 29.98 in 1.8 mi NW 5.8 mph - 0.11 in Rain Heavy Rain
1:46 AM 68.0 °F - 64.4 °F 88% 30.00 in 4.0 mi West 3.5 mph - 0.15 in Rain Light Rain
1:53 AM 68.0 °F - 64.9 °F 90% 29.95 in 7.0 mi NNW 3.5 mph - 0.16 in Rain Light Rain
2:53 AM 68.0 °F - 66.0 °F 93% 29.93 in 10.0 mi East 4.6 mph - 0.04 in   Partly Cloudy
3:53 AM 68.0 °F - 64.9 °F 90% 29.93 in 10.0 mi Calm Calm - N/A   Clear
4:53 AM 68.0 °F - 64.9 °F 90% 29.94 in 10.0 mi SE 4.6 mph - N/A   Mostly Cloudy
5:53 AM 68.0 °F - 66.0 °F 93% 29.94 in 9.0 mi Calm Calm - N/A   Clear
6:30 AM 68.0 °F - 66.2 °F 94% 29.99 in 1.5 mi Calm Calm - N/A   Clear
6:37 AM 68.0 °F - 66.2 °F 94% 29.99 in 10.0 mi Calm Calm - N/A   Clear
6:53 AM 68.0 °F - 66.0 °F 93% 29.96 in 10.0 mi Calm Calm - N/A   Clear
7:53 AM 69.1 °F - 66.0 °F 90% 29.98 in 10.0 mi Calm Calm - N/A   Clear
8:53 AM 72.0 °F - 66.9 °F 84% 29.99 in 10.0 mi Calm Calm - N/A   Mostly Cloudy
9:53 AM 75.9 °F - 69.1 °F 79% 30.00 in 10.0 mi South 3.5 mph - N/A   Clear
10:53 AM 78.1 °F - 66.9 °F 68% 30.01 in 10.0 mi SSW 9.2 mph - N/A   Clear
11:53 AM 79.0 °F - 66.0 °F 64% 30.03 in 10.0 mi South 10.4 mph - N/A   Clear
12:53 PM 79.0 °F - 64.9 °F 62% 30.03 in 10.0 mi WSW 9.2 mph - N/A   Mostly Cloudy
1:53 PM 78.1 °F - 64.9 °F 64% 30.04 in 10.0 mi SSW 8.1 mph - N/A   Mostly Cloudy
2:53 PM 79.0 °F - 66.0 °F 64% 30.02 in 10.0 mi SW 6.9 mph - N/A   Mostly Cloudy
3:53 PM 80.1 °F 81.7 °F 64.0 °F 58% 30.01 in 10.0 mi South 4.6 mph - N/A   Scattered Clouds
4:53 PM 82.9 °F 84.4 °F 64.0 °F 53% 30.01 in 10.0 mi West 5.8 mph - N/A   Scattered Clouds
5:53 PM 82.0 °F 83.4 °F 64.0 °F 54% 30.01 in 10.0 mi Calm Calm - N/A   Scattered Clouds
6:53 PM 81.0 °F 82.7 °F 64.9 °F 58% 30.02 in 10.0 mi Calm Calm - N/A   Clear
7:53 PM 78.1 °F - 66.9 °F 68% 30.02 in 10.0 mi Calm Calm - N/A   Clear
8:53 PM 77.0 °F - 68.0 °F 74% 30.03 in 10.0 mi ESE 3.5 mph - N/A   Clear
9:53 PM 75.9 °F - 66.0 °F 71% 30.04 in 10.0 mi SE 3.5 mph - N/A   Mostly Cloudy
10:53 PM 75.0 °F - 64.9 °F 71% 30.05 in 10.0 mi Calm Calm - N/A   Overcast
11:53 PM 73.9 °F - 64.9 °F 73% 30.06 in 10.0 mi Calm Calm - N/A   Partly Cloudy